SCP
0 0 0 0 0 0 0 0 0 0 0 0 0 0 0 0 0 0 0 0 0 0 0 0 0 0 0 0 0 0 0 0 0 0 0 0 0 0 0 0 0 0 0
0 0 0 0 0 0 0 0 0 0 0 0 0 0 0 0 0 0 0 0 0 0 0 0 0 0 0 0 0 0 0 0 0 0 0 0 0 0 0 0 0 0 0
0 0 0 0 0 0 0 0 0 0 0 0 0 0 0 0 0 0 0 0 0 0 0 0 0 0 0 0 0 0 0 0 0 0 0 0 0 0 0 0 0 0 0
0 0 0 0 0 0 0 0 0 0 0 0 0 0 0 0 0 0 0 0 0 0 0 0 0 0 0 0 0 0 0 0 0 0 0 0 0 0 0 0 0 0 0
1 0 0 1 1 0 0 0 0 0 0 0 0 0 0 0 0 0 0 0 0 0 0 0 0 0 0 0 0 0 0 0 0 0 0 0 0 0 0 0 0 0 0
1 1 1 1 1 0 0 0 0 0 0 0 0 0 0 0 0 0 0 0 0 0 0 0 0 0 0 0 0 0 0 0 0 0 0 0 0 0 0 0 0 0 0
1 1 1 1 1 0 0 0 0 0 0 0 0 0 0 0 0 0 0 0 0 0 0 0 0 0 0 0 0 0 0 0 0 0 0 0 0 0 0 0 0 0 0
1 1 1 1 1 0 0 0 0 0 0 0 0 0 0 0 0 0 0 0 0 0 0 0 0 0 0 0 0 0 0 0 0 0 0 0 0 0 0 0 0 0 0
1 1 1 1 1 0 0 0 0 0 0 0 0 0 0 0 0 0 0 0 0 0 0 0 0 0 0 0 0 0 0 0 0 0 0 0 0 0 0 0 0 0 0
1 1 1 1 1 0 0 0 0 0 0 0 0 0 0 0 0 0 0 0 0 0 0 0 0 0 0 0 0 0 0 0 0 0 0 0 0 0 0 0 0 0 0
1 1 1 1 1 0 0 0 0 0 0 0 0 0 0 0 0 0 0 0 0 0 0 0 0 0 0 0 0 0 0 0 0 0 0 0 0 0 0 0 0 0 0
1 1 1 1 0 0 0 0 0 0 0 0 0 0 0 0 0 0 0 0 0 0 0 0 0 0 0 0 0 0 0 0 0 0 0 0 0 0 0 0 0 0 0
1 1 1 1 0 0 0 0 0 0 0 0 0 0 0 0 0 0 0 0 0 0 0 0 0 0 0 0 0 0 0 0 0 0 0 0 0 0 0 0 0 0 0
0 0 0 0 0 0 0 0 0 0 0 0 0 0 0 0 0 0 0 0 0 0 0 0 0 0 0 0 0 0 0 0 0 0 0 0 0 0 0 0 0 0 0
1 0 0 0 0 0 0 0 0 0 0 0 0 0 0 0 0 0 0 0 0 0 0 0 0 0 0 0 0 0 0 0 0 0 0 0 0 0 0 0 0 0 0
1 1 0 0 0 0 0 0 0 0 0 0 0 0 0 0 0 0 0 0 0 0 0 0 0 0 0 0 0 0 0 0 0 0 0 0 0 0 0 0 0 0 0
1 1 1 0 0 0 0 0 0 0 0 0 0 0 0 0 0 0 0 0 0 0 0 0 0 0 0 0 0 0 0 0 0 0 0 0 0 0 0 0 0 0 0
1 1 1 1 0 0 0 0 0 0 0 0 0 0 0 0 0 0 0 0 0 0 0 0 0 0 0 0 0 0 0 0 0 0 0 0 0 0 0 0 0 0 0
1 1 1 1 0 0 0 0 0 0 0 0 0 0 0 0 0 0 0 0 0 0 0 0 0 0 0 0 0 0 0 0 0 0 0 0 0 0 0 0 0 0 0
1 1 1 1 0 0 0 0 0 0 0 0 0 0 0 0 0 0 0 0 0 0 0 0 0 0 0 0 0 0 0 0 0 0 0 0 0 0 0 0 0 0 0
0 1 1 1 1 0 0 0 0 0 0 0 0 0 0 0 0 0 0 0 0 0 0 0 0 0 0 0 0 0 0 0 0 0 0 0 0 0 0 0 0 0 0
0 0 1 1 1 0 0 0 0 0 0 0 0 0 0 0 0 0 0 0 0 0 0 0 0 0 0 0 0 0 0 0 0 0 0 0 0 0 0 0 0 0 0
0 0 0 0 1 0 0 0 0 0 0 0 0 0 0 0 0 0 0 0 0 0 0 0 0 0 0 0 0 0 0 0 0 0 0 0 0 0 0 0 0 0 0
0 0 0 0 0 0 0 1 0 0 0 0 0 0 0 0 0 0 0 0 0 0 0 0 0 0 0 0 0 0 0 0 0 0 0 0 0 0 0 0 0 0 0
0 0 0 0 0 0 0 0 0 0 0 0 0 0 0 0 0 0 0 0 0 0 0 0 0 0 0 0 0 0 0 0 0 0 0 0 0 0 0 0 0 0 0
0 0 0 0 0 0 0 0 0 0 0 0 0 0 0 0 0 0 0 0 0 0 0 0 0 0 0 0 0 0 0 0 0 0 0 0 0 0 0 0 0 0 0
Wind_Speed
8 10 17 17 17 17 17 16 16 15 14 14 14 14 14 13 12 12 12 12 12 12 13 13 14 14 14 15 15 15 15 15 14 14 13 12 12 13 13 12 10 7 12
11 12 17 17 17 17 17 16 15 14 14 14 14 13 13 12 12 12 11 12 12 13 13 14 14 14 14 14 14 14 14 13 13 12 10 8 10 12 13 11 10 7 11
14 12 15 16 16 17 16 16 15 15 14 14 13 13 13 12 12 11 12 12 13 13 14 14 14 13 14 13 13 13 12 11 10 9 7 4 6 11 12 11 11 11 12
15 11 13 16 17 17 17 16 16 15 14 13 13 12 12 12 12 12 12 13 13 14 14 14 13 13 12 12 12 12 11 10 9 7 4 3 4 10 12 12 12 12 13
12 10 12 16 17 17 17 16 16 15 14 13 13 12 12 12 12 12 13 13 13 14 13 13 12 11 11 11 11 11 11 11 11 8 5 4 4 11 13 13 13 14 14
10 9 12 16 17 17 17 16 16 15 14 14 13 12 12 12 13 13 14 13 13 13 13 12 11 10 10 10 10 11 11 12 9 5 5 4 4 12 14 14 14 14 14
11 9 12 16 17 17 16 15 15 15 14 14 13 12 12 12 14 14 14 13 13 13 12 11 10 9 9 9 10 10 11 11 7 5 4 4 6 13 13 13 13 13 12
13 11 11 15 15 16 16 15 14 14 14 13 13 12 12 13 14 14 14 13 13 12 11 11 10 9 8 7 8 9 9 9 8 6 5 4 9 12 12 11 11 11 11
12 10 9 10 12 14 14 14 14 13 13 12 12 11 11 12 13 14 13 13 12 12 11 10 9 8 7 6 6 7 8 8 5 4 5 3 9 11 11 11 10 10 10
10 10 9 8 8 9 10 13 13 13 12 11 11 10 10 10 11 12 10 11 11 11 10 9 9 7 6 5 5 6 7 6 4 4 3 4 9 10 10 9 9 9 9
11 9 9 8 8 8 8 10 11 11 11 11 9 11 9 5 5 6 7 10 10 10 10 9 8 7 5 3 3 5 5 2 3 3 2 7 10 9 9 9 9 9 8
11 10 9 9 9 8 7 7 5 5 6 6 5 6 4 4 4 5 8 9 9 9 8 8 8 6 3 1 1 2 2 3 2 2 3 9 10 9 9 8 8 8 8
11 10 10 9 9 8 6 6 3 3 4 5 6 6 5 4 3 3 3 4 5 5 3 4 4 2 2 2 1 1 3 2 2 2 4 10 10 10 9 9 8 8 8
11 10 10 10 9 8 7 6 5 4 4 4 5 6 5 3 3 3 3 3 3 2 3 3 2 3 3 3 3 3 3 3 3 3 4 10 11 11 10 9 9 8 8
10 10 10 10 10 9 8 6 6 5 6 6 5 6 6 5 5 4 4 4 4 3 3 3 3 4 4 4 3 4 4 4 5 4 4 9 10 11 11 11 10 9 9
9 9 9 10 10 10 8 7 6 6 6 6 6 7 7 6 6 6 5 5 5 4 4 4 5 4 4 3 4 4 5 5 5 5 4 6 10 11 12 12 11 11 10
9 9 9 9 10 10 9 8 7 6 6 6 6 7 8 7 7 7 6 6 5 5 5 4 4 3 3 3 4 5 4 5 6 6 5 4 5 10 12 13 13 12 12
7 8 8 7 8 9 8 7 5 6 7 6 6 6 8 9 9 7 6 6 6 5 5 4 4 4 4 3 3 3 3 4 6 6 5 5 4 5 8 13 13 13 13
8 8 8 7 7 8 7 6 5 5 6 6 6 6 7 9 9 7 6 6 6 5 5 5 4 4 4 4 4 3 3 4 5 6 6 7 6 6 5 10 12 13 13
7 7 7 6 6 6 5 4 3 4 4 4 5 6 8 7 8 7 6 6 6 5 5 5 5 4 4 4 3 3 3 3 3 5 7 6 6 7 7 6 6 8 13
5 6 6 6 6 5 4 4 4 4 3 3 4 5 7 7 7 7 5 6 6 7 7 7 5 5 4 3 2 2 3 3 4 4 5 5 7 7 7 7 5 4 5
5 5 6 6 6 5 4 4 3 3 3 3 3 4 6 6 7 6 7 6 7 6 6 7 6 4 4 4 4 2 3 4 4 5 4 5 6 5 7 8 6 6 5
4 4 5 5 5 5 4 3 2 1 1 2 3 3 4 5 6 6 7 7 7 7 7 8 8 7 6 5 4 5 4 6 3 3 4 4 4 4 4 4 6 6 6
3 3 3 3 3 3 4 4 5 5 5 4 3 3 3 4 5 5 6 7 7 7 8 8 8 7 7 6 4 4 4 4 4 3 2 2 3 4 4 4 5 5 5
3 3 2 3 2 2 3 4 5 4 4 2 2 2 3 3 3 4 5 5 6 6 7 7 7 8 7 7 6 4 4 3 3 3 4 2 1 2 3 3 3 4 5
3 3 3 3 2 2 2 2 3 4 3 2 2 2 2 2 2 3 4 4 4 5 6 7 7 8 8 7 7 6 5 4 5 6 7 5 4 2 1 1 2 2 3
Wind_Direction
155 160 155 152 148 145 143 140 137 133 129 125 121 118 116 114 112 111 111 108 104 103 99 94 92 91 92 91 90 89 87 85 83 81 77 74 81 88 88 84 79 71 78
146 155 153 151 147 146 144 141 137 134 132 129 126 123 122 120 118 116 116 113 108 105 101 97 93 92 94 92 92 91 91 88 87 84 75 71 80 86 87 86 86 85 83
144 152 151 149 145 144 142 140 137 136 133 131 129 126 126 125 122 120 119 115 110 106 103 100 97 95 96 95 93 92 92 90 88 87 77 65 85 93 91 89 87 85 85
144 149 151 147 145 143 142 140 139 137 135 132 130 129 129 127 127 125 123 118 113 109 107 105 102 100 99 96 92 90 90 90 88 91 72 58 76 94 93 90 86 84 81
140 144 150 147 145 143 142 141 139 137 135 132 132 132 131 131 131 129 126 121 117 114 112 110 108 105 101 96 91 88 87 89 89 87 76 65 68 91 89 85 83 82 81
134 137 149 147 145 143 142 141 140 139 136 134 133 133 134 135 133 130 127 124 122 120 119 116 113 109 104 95 88 89 90 92 89 84 78 73 76 90 88 85 83 82 80
136 140 150 147 146 145 144 143 143 141 139 138 137 137 138 138 136 133 132 132 130 128 126 124 122 117 110 98 90 91 94 96 97 90 83 77 89 93 91 89 87 85 83
141 144 151 147 146 147 147 146 145 143 142 141 141 142 142 141 140 138 138 138 137 135 135 134 132 127 119 107 98 97 102 103 105 100 91 87 100 97 95 93 92 89 87
141 143 146 149 149 149 149 148 147 144 143 143 143 143 141 141 144 144 144 144 144 142 141 142 142 139 132 120 107 102 103 106 111 113 109 103 108 104 102 100 98 95 93
143 146 146 148 150 149 150 149 147 145 145 143 138 136 138 141 146 147 149 149 149 149 149 150 152 152 148 137 120 113 113 111 120 121 122 128 122 116 113 110 107 103 101
149 152 152 151 151 148 150 152 148 146 147 142 140 141 136 136 140 146 152 152 153 154 157 160 164 165 161 159 144 128 115 121 140 139 146 143 136 131 127 123 119 115 111
160 162 160 158 156 153 155 146 146 147 146 144 148 146 141 143 151 154 159 159 160 161 165 170 173 173 163 183 188 127 118 138 154 163 167 157 150 145 141 138 133 129 125
165 166 167 165 161 158 149 151 151 147 150 154 160 159 153 151 154 153 154 160 161 162 163 174 173 179 194 214 224 181 165 168 179 187 179 168 161 157 155 153 150 145 141
167 170 170 169 165 163 157 162 162 160 164 169 177 172 161 160 165 167 169 169 167 167 174 178 183 207 226 238 232 214 189 185 184 186 189 177 172 169 168 167 166 162 158
169 172 172 170 169 169 165 170 172 176 178 180 183 184 175 171 176 177 180 181 183 181 185 192 200 212 227 240 235 218 203 192 187 184 187 183 179 178 178 179 178 177 174
174 172 170 170 170 170 173 176 178 183 184 183 188 190 185 182 181 183 186 190 194 194 195 198 205 210 219 221 228 221 205 191 191 187 190 189 187 185 187 189 190 190 187
178 174 174 174 170 172 177 182 181 185 184 187 194 195 191 188 187 187 190 196 201 199 199 201 211 212 220 220 222 217 203 194 191 191 190 192 193 195 196 199 198 198 198
175 174 177 177 174 175 178 181 181 185 186 189 192 195 196 193 190 190 194 200 197 195 196 199 202 206 220 219 218 216 205 197 198 198 195 195 195 198 206 207 205 205 205
176 173 177 177 177 180 180 181 181 183 189 191 191 193 197 196 194 193 198 199 191 194 198 204 202 196 210 219 221 220 213 204 203 200 202 204 203 200 202 211 207 207 209
177 175 177 180 181 180 176 173 176 187 193 192 195 198 198 198 195 195 199 199 191 195 202 201 200 202 203 202 215 228 233 229 216 210 208 208 209 209 205 206 204 209 209
169 172 179 180 183 174 171 178 184 196 198 198 201 203 203 203 199 198 202 199 197 204 206 201 195 202 210 169 167 274 292 255 234 226 215 210 212 211 207 209 203 200 209
177 175 175 182 183 184 186 183 182 180 195 201 203 207 207 207 207 207 207 207 204 207 210 206 197 195 201 176 167 174 274 297 260 229 215 217 217 207 210 210 204 202 199
170 178 176 178 179 184 182 163 142 137 158 197 213 217 218 214 213 214 215 213 211 209 215 213 205 201 209 205 190 173 190 229 266 277 237 226 213 208 215 208 208 206 200
165 160 159 160 163 175 171 169 175 189 205 214 217 224 234 228 227 224 221 216 216 216 220 218 211 208 202 208 214 220 208 179 192 259 275 242 215 213 212 208 204 202 197
128 121 120 120 126 146 156 173 182 199 215 220 219 226 236 240 238 238 232 225 223 221 223 221 215 212 211 211 203 198 215 217 203 212 255 258 250 228 216 211 200 194 190
100 97 99 106 100 106 133 148 170 189 197 197 217 229 241 244 246 250 247 238 233 228 226 225 222 216 218 218 214 204 193 192 200 207 231 232 228 223 205 202 199 192 183